Temp
-4 -4 -4 -4 -4 -4 -4 -5 -4 -5 -5 -4 -5 -5 -5 -5 -5 -5 -5 -4 -4 -4 -5 -5 -5 -5 -5 -5 -5 -5 -5 -5 -6 -6 -6 -6 -6 -6 -6 -6 -6 -6 -6 -6
-4 -4 -5 -5 -5 -5 -5 -5 -5 -5 -5 -5 -5 -6 -6 -5 -6 -5 -6 -5 -5 -5 -5 -5 -5 -6 -6 -6 -6 -6 -6 -6 -6 -6 -6 -6 -6 -6 -6 -6 -5 -6 -6 -6
-4 -5 -5 -4 -5 -5 -5 -6 -5 -5 -5 -5 -5 -6 -6 -6 -6 -6 -6 -6 -6 -5 -5 -5 -5 -5 -6 -6 -6 -6 -5 -6 -6 -6 -6 -6 -6 -6 -6 -6 -6 -6 -6 -6
-6 -6 -5 -5 -5 -5 -4 -5 -5 -5 -5 -6 -5 -5 -4 -6 -7 -6 -6 -6 -6 -6 -6 -5 -5 -5 -5 -5 -6 -6 -6 -6 -6 -6 -6 -6 -6 -6 -6 -6 -6 -6 -6 -6
-4 -5 -5 -6 -5 -5 -6 -5 -5 -5 -5 -6 -7 -6 -6 -6 -7 -6 -6 -6 -6 -7 -7 -7 -6 -5 -5 -5 -5 -5 -7 -6 -6 -7 -7 -7 -7 -7 -7 -6 -6 -7 -6 -6
-7 -6 -6 -7 -5 -5 -5 -5 -6 -6 -6 -6 -5 -5 -6 -7 -6 -6 -6 -6 -6 -7 -7 -7 -7 -7 -6 -6 -6 -6 -6 -7 -6 -6 -6 -7 -7 -7 -7 -7 -7 -7 -7 -7
-7 -7 -5 -4 -6 -6 -6 -7 -6 -5 -5 -5 -5 -6 -6 -6 -5 -5 -5 -6 -6 -7 -7 -8 -8 -8 -8 -7 -7 -7 -6 -7 -6 -7 -7 -8 -8 -8 -7 -7 -8 -7 -7 -7
-6 -6 -5 -4 -5 -5 -6 -6 -6 -6 -5 -5 -6 -7 -7 -7 -5 -5 -5 -5 -6 -7 -7 -7 -8 -8 -8 -8 -8 -7 -6 -5 -6 -6 -6 -7 -7 -8 -9 -9 -8 -7 -8 -8
-7 -7 -6 -5 -4 -4 -6 -7 -7 -5 -6 -5 -5 -6 -7 -7 -7 -7 -5 -6 -6 -6 -7 -7 -8 -8 -8 -8 -8 -8 -7 -8 -8 -6 -6 -7 -8 -8 -8 -9 -8 -8 -7 -7
-7 -6 -7 -4 -4 -5 -5 -5 -5 -7 -6 -6 -6 -7 -6 -7 -6 -5 -5 -5 -5 -5 -7 -7 -8 -8 -9 -9 -9 -8 -8 -8 -8 -7 -7 -8 -8 -7 -8 -8 -8 -8 -8 -8
-5 -7 -7 -5 -6 -6 -6 -6 -6 -6 -6 -7 -6 -6 -7 -5 -5 -5 -5 -5 -6 -6 -6 -7 -8 -8 -8 -9 -9 -9 -9 -8 -8 -9 -9 -8 -10 -8 -8 -8 -9 -9 -9 -9
-7 -5 -6 -7 -7 -5 -5 -5 -5 -7 -7 -7 -7 -7 -7 -6 -5 -6 -5 -5 -5 -6 -6 -7 -8 -8 -8 -9 -9 -9 -9 -9 -9 -9 -9 -9 -9 -10 -10 -10 -9 -10 -9 -10
-5 -5 -6 -7 -6 -7 -4 -5 -5 -5 -6 -6 -8 -7 -8 -8 -6 -6 -6 -6 -6 -6 -7 -7 -8 -8 -9 -9 -9 -9 -9 -9 -9 -9 -9 -10 -9 -10 -10 -10 -10 -10 -10 -10
-5 -5 -5 -5 -6 -6 -6 -5 -6 -7 -7 -7 -8 -8 -8 -6 -6 -6 -6 -6 -6 -6 -7 -7 -8 -9 -9 -9 -9 -9 -9 -9 -10 -9 -10 -10 -10 -10 -10 -10 -10 -10 -10 -10
-5 -5 -5 -5 -5 -5 -5 -5 -5 -5 -6 -6 -6 -6 -7 -7 -5 -6 -6 -6 -7 -7 -7 -8 -8 -9 -10 -10 -10 -10 -10 -10 -10 -10 -10 -10 -10 -10 -10 -10 -10 -10 -9 -10
-5 -5 -5 -5 -5 -5 -5 -5 -5 -5 -5 -5 -6 -6 -9 -8 -6 -6 -7 -7 -7 -7 -8 -9 -9 -9 -10 -10 -10 -9 -10 -9 -10 -10 -10 -10 -10 -10 -10 -10 -10 -11 -9 -10
-5 -5 -5 -4 -5 -5 -4 -5 -5 -5 -5 -6 -6 -6 -6 -6 -6 -7 -8 -7 -8 -9 -9 -10 -10 -10 -10 -11 -11 -10 -10 -10 -10 -10 -10 -10 -10 -10 -11 -10 -11 -11 -11 -12
-5 -5 -5 -4 -5 -4 -5 -4 -4 -5 -5 -5 -6 -6 -6 -7 -7 -7 -8 -8 -9 -10 -10 -11 -11 -11 -11 -11 -11 -11 -11 -11 -10 -11 -10 -11 -10 -11 -11 -11 -11 -11 -11 -11
-6 -5 -5 -5 -5 -5 -6 -7 -4 -6 -5 -6 -5 -6 -7 -7 -7 -8 -8 -9 -11 -12 -12 -11 -12 -12 -12 -11 -11 -11 -11 -11 -10 -11 -11 -11 -11 -11 -11 -12 -11 -11 -11 -11
-6 -5 -6 -6 -6 -5 -6 -5 -4 -6 -6 -4 -5 -5 -6 -7 -8 -9 -8 -10 -11 -12 -12 -12 -12 -12 -12 -12 -11 -11 -11 -11 -10 -10 -11 -11 -11 -11 -12 -11 -11 -11 -11 -10
-5 -6 -6 -6 -6 -6 -6 -5 -5 -6 -6 -6 -6 -6 -7 -7 -8 -8 -9 -10 -11 -12 -12 -12 -12 -12 -12 -12 -12 -11 -11 -10 -11 -11 -11 -11 -11 -11 -11 -11 -11 -11 -10 -10
-6 -6 -6 -6 -6 -6 -6 -6 -6 -6 -6 -6 -7 -7 -7 -7 -7 -8 -9 -10 -10 -11 -11 -12 -12 -12 -12 -12 -11 -11 -11 -11 -11 -11 -11 -11 -11 -11 -11 -11 -11 -11 -11 -10
-6 -7 -7 -7 -7 -7 -6 -6 -7 -6 -6 -6 -7 -7 -7 -7 -7 -8 -9 -10 -10 -11 -11 -11 -11 -11 -12 -12 -12 -11 -11 -12 -12 -11 -11 -11 -11 -11 -11 -11 -11 -11 -10 -10
-7 -7 -7 -7 -7 -8 -8 -7 -7 -7 -7 -7 -7 -7 -7 -7 -8 -9 -9 -10 -10 -10 -11 -12 -12 -12 -12 -12 -11 -11 -12 -12 -12 -12 -12 -11 -11 -11 -11 -11 -11 -11 -11 -11
-7 -8 -8 -7 -7 -8 -7 -8 -7 -7 -7 -7 -7 -8 -7 -7 -8 -9 -9 -10 -10 -10 -11 -12 -11 -11 -11 -11 -11 -12 -12 -12 -12 -12 -11 -11 -11 -11 -11 -11 -11 -11 -11 -11
-8 -9 -9 -8 -8 -8 -8 -8 -8 -7 -8 -8 -8 -8 -7 -7 -9 -9 -10 -10 -10 -10 -11 -11 -11 -11 -11 -11 -12 -12 -12 -12 -12 -12 -11 -11 -11 -11 -11 -11 -11 -11 -11 -12
Height
5934 5933 5930 5933 5935 5933 5933 5933 5932 5930 5929 5930 5929 5929 5930 5929 5929 5927 5925 5925 5925 5924 5924 5924 5922 5921 5920 5920 5919 5920 5920 5920 5920 5920 5920 5920 5919 5919 5919 5919 5920 5920 5920 5919
5933 5929 5930 5935 5934 5934 5935 5931 5932 5933 5932 5932 5931 5929 5930 5930 5929 5928 5926 5924 5923 5923 5922 5922 5923 5921 5920 5918 5917 5916 5916 5917 5917 5917 5917 5917 5917 5917 5916 5915 5916 5916 5916 5916
5924 5935 5936 5935 5934 5934 5933 5934 5935 5934 5934 5932 5930 5929 5930 5929 5930 5928 5927 5925 5922 5920 5918 5918 5918 5918 5917 5915 5914 5913 5913 5913 5913 5913 5913 5913 5913 5913 5912 5911 5912 5910 5912 5913
5937 5937 5937 5936 5935 5935 5932 5934 5934 5934 5934 5935 5933 5931 5922 5924 5927 5926 5924 5923 5921 5919 5916 5914 5912 5913 5912 5911 5911 5910 5910 5909 5908 5908 5909 5908 5907 5907 5906 5905 5907 5911 5908 5907
5936 5936 5936 5935 5934 5934 5934 5933 5933 5932 5932 5932 5930 5937 5927 5925 5927 5924 5922 5920 5918 5917 5915 5911 5908 5906 5906 5905 5905 5905 5905 5904 5903 5902 5901 5900 5900 5900 5899 5898 5903 5900 5900 5901
5938 5937 5936 5935 5932 5932 5933 5932 5933 5935 5938 5934 5933 5934 5929 5928 5923 5923 5919 5917 5915 5913 5912 5910 5907 5903 5903 5901 5899 5897 5898 5897 5896 5896 5892 5893 5893 5893 5892 5894 5890 5890 5891 5892
5941 5939 5936 5934 5933 5933 5933 5937 5938 5941 5942 5943 5934 5933 5935 5926 5921 5917 5915 5913 5911 5909 5907 5905 5904 5901 5896 5896 5895 5893 5891 5891 5889 5887 5882 5883 5883 5884 5888 5885 5882 5882 5883 5882
5944 5941 5936 5934 5934 5934 5934 5934 5940 5942 5943 5940 5935 5934 5933 5922 5918 5915 5912 5909 5906 5904 5902 5900 5898 5897 5895 5888 5889 5887 5885 5884 5882 5875 5859 5869 5874 5874 5872 5875 5876 5876 5875 5876
5944 5942 5935 5934 5933 5934 5934 5934 5937 5935 5936 5938 5940 5935 5930 5921 5916 5911 5908 5903 5900 5898 5896 5894 5893 5891 5890 5887 5883 5882 5879 5872 5873 5870 5861 5868 5866 5864 5864 5865 5865 5862 5866 5863
5936 5937 5938 5933 5933 5933 5932 5932 5933 5936 5935 5934 5934 5928 5930 5918 5914 5908 5904 5900 5895 5891 5890 5887 5885 5884 5883 5880 5876 5873 5873 5871 5867 5863 5853 5858 5861 5860 5857 5858 5857 5856 5854 5857
5932 5935 5939 5933 5933 5932 5932 5929 5929 5929 5928 5928 5928 5929 5920 5912 5908 5903 5899 5895 5890 5884 5881 5878 5876 5875 5875 5872 5870 5867 5865 5863 5864 5860 5859 5850 5850 5851 5851 5843 5846 5850 5849 5849
5932 5931 5932 5934 5933 5929 5929 5928 5927 5927 5926 5925 5921 5919 5910 5902 5899 5895 5892 5885 5884 5877 5873 5869 5866 5865 5866 5865 5863 5861 5860 5856 5857 5857 5854 5853 5848 5844 5843 5844 5846 5846 5844 5844
5929 5929 5928 5931 5934 5925 5922 5923 5921 5919 5918 5916 5913 5915 5912 5900 5893 5888 5882 5878 5874 5870 5864 5859 5856 5854 5855 5855 5855 5852 5853 5853 5851 5851 5851 5847 5845 5842 5840 5839 5841 5840 5839 5840
5925 5925 5924 5925 5926 5923 5919 5917 5915 5913 5910 5909 5908 5904 5900 5893 5885 5882 5876 5870 5864 5861 5855 5850 5846 5843 5843 5845 5846 5846 5847 5846 5844 5844 5844 5842 5839 5836 5835 5834 5834 5835 5834 5834
5920 5920 5919 5919 5918 5916 5915 5913 5911 5908 5905 5902 5900 5895 5890 5882 5875 5873 5867 5861 5855 5851 5844 5840 5838 5834 5833 5835 5836 5835 5835 5836 5837 5838 5836 5835 5832 5832 5832 5830 5830 5831 5829 5827
5916 5914 5912 5914 5911 5909 5907 5907 5904 5901 5897 5893 5890 5885 5882 5873 5865 5861 5855 5848 5843 5839 5835 5831 5829 5826 5824 5825 5827 5821 5822 5827 5828 5828 5829 5828 5827 5826 5824 5824 5823 5819 5818 5818
5909 5908 5906 5905 5905 5902 5902 5899 5896 5894 5889 5886 5881 5878 5872 5864 5859 5854 5844 5838 5831 5826 5826 5822 5819 5817 5815 5815 5817 5817 5816 5817 5818 5820 5820 5820 5818 5818 5818 5817 5814 5811 5810 5811
5903 5902 5900 5898 5897 5896 5893 5891 5889 5887 5882 5878 5873 5868 5862 5854 5847 5843 5833 5825 5819 5815 5813 5810 5808 5807 5807 5807 5807 5809 5810 5810 5809 5810 5809 5809 5808 5809 5808 5807 5806 5804 5804 5806
5896 5894 5893 5891 5890 5889 5887 5882 5880 5876 5874 5868 5865 5860 5852 5844 5838 5828 5819 5813 5808 5804 5800 5801 5798 5798 5798 5799 5799 5801 5802 5800 5797 5798 5799 5799 5799 5798 5799 5800 5799 5800 5802 5803
5889 5888 5886 5885 5882 5881 5879 5871 5874 5869 5864 5857 5852 5847 5841 5836 5829 5820 5811 5805 5799 5795 5793 5791 5792 5791 5791 5791 5791 5793 5793 5794 5791 5791 5790 5787 5789 5789 5793 5794 5794 5797 5799 5801
5880 5880 5878 5875 5873 5874 5870 5863 5863 5859 5855 5847 5842 5837 5832 5825 5819 5810 5805 5798 5793 5789 5787 5786 5786 5784 5784 5784 5785 5787 5787 5788 5787 5785 5784 5782 5784 5786 5788 5790 5792 5793 5795 5795
5871 5868 5868 5865 5863 5863 5857 5855 5853 5850 5844 5839 5834 5829 5823 5817 5809 5802 5797 5791 5787 5784 5781 5780 5779 5778 5777 5778 5779 5781 5782 5782 5782 5782 5782 5782 5782 5783 5785 5787 5788 5790 5791 5791
5861 5861 5859 5858 5855 5849 5846 5846 5841 5837 5835 5831 5826 5820 5813 5807 5800 5794 5790 5785 5782 5778 5776 5772 5770 5771 5772 5772 5775 5776 5776 5776 5777 5778 5779 5779 5779 5780 5782 5784 5785 5785 5785 5785
5849 5846 5844 5844 5845 5841 5836 5832 5830 5827 5823 5820 5815 5809 5803 5798 5791 5787 5783 5779 5777 5773 5770 5767 5767 5768 5770 5771 5772 5772 5772 5773 5774 5774 5775 5776 5776 5777 5778 5779 5780 5780 5779 5778
5838 5833 5832 5829 5830 5828 5826 5823 5819 5816 5813 5809 5804 5800 5794 5789 5784 5779 5776 5773 5771 5766 5766 5765 5766 5766 5769 5769 5770 5769 5769 5769 5769 5770 5771 5772 5772 5773 5774 5774 5775 5775 5774 5773
5825 5822 5820 5816 5814 5815 5814 5812 5808 5805 5802 5798 5794 5789 5785 5780 5776 5773 5770 5767 5766 5762 5759 5761 5762 5764 5765 5766 5765 5765 5765 5765 5765 5765 5766 5766 5767 5768 5769 5769 5768 5767 5766 5765
Wind_Speed
5 6 3 4 2 2 4 9 8 8 6 7 2 4 3 8 6 7 10 8 4 5 4 4 8 12 13 15 18 18 18 20 21 23 25 26 26 28 28 29 28 27 26 27
8 8 6 2 4 6 9 4 5 2 6 4 6 3 4 7 9 11 11 10 10 8 9 9 8 11 14 17 19 21 23 22 24 26 28 29 30 29 31 31 30 30 31 30
13 4 4 5 6 4 7 4 1 2 4 5 5 4 8 11 10 13 11 12 14 15 18 16 15 15 15 17 21 23 24 26 27 28 29 32 33 33 33 34 33 35 32 33
6 5 1 2 4 3 11 4 5 5 5 16 4 13 13 3 14 13 14 14 16 19 21 25 28 24 23 21 19 21 25 26 27 29 32 33 35 37 38 39 38 32 34 34
2 1 5 7 4 4 6 7 7 7 6 11 12 4 17 8 13 21 22 20 20 21 24 25 28 28 29 28 25 21 23 26 28 28 30 36 38 40 40 41 35 38 38 37
5 7 6 4 4 6 9 18 17 22 15 6 19 2 6 15 32 31 26 25 25 24 23 23 26 28 27 30 28 28 22 31 31 34 36 34 38 43 44 39 41 40 38 37
7 6 6 3 10 11 11 13 12 4 2 9 20 4 12 26 21 21 22 26 28 29 27 26 23 26 30 28 27 29 28 30 36 41 42 34 39 46 41 40 39 40 39 39
9 9 11 3 3 4 4 5 7 4 7 11 14 6 8 25 21 19 22 23 27 29 29 29 27 26 27 28 26 26 26 34 39 52 40 33 34 44 51 40 35 40 44 43
2 4 9 6 5 4 5 5 9 8 9 7 6 13 16 24 22 27 24 29 28 27 32 33 33 30 28 29 26 26 31 32 34 37 38 31 28 41 34 36 41 38 46 46
7 13 6 8 7 7 6 8 8 7 12 13 11 15 9 26 26 28 27 27 29 30 31 36 38 37 30 28 29 27 29 31 31 38 33 16 22 23 26 40 44 47 48 36
5 8 10 9 11 5 14 13 18 11 14 12 17 14 26 27 26 28 30 30 25 29 28 35 41 43 39 33 30 30 28 28 29 29 30 32 23 29 29 27 20 21 12 8
8 8 11 13 18 11 12 11 12 13 15 16 21 19 28 33 34 36 32 36 30 30 32 32 38 42 41 38 35 32 32 29 26 22 23 27 32 39 35 26 19 19 16 12
11 9 11 12 12 28 16 19 19 20 19 21 21 19 21 33 38 38 40 36 37 33 33 34 34 40 41 40 39 35 32 32 27 28 29 29 30 35 37 33 26 26 13 7
12 12 13 12 14 25 23 23 25 25 24 23 22 26 28 35 41 39 39 40 41 38 39 35 34 38 41 41 41 37 31 30 28 32 33 34 33 35 38 37 35 29 23 20
14 15 17 16 19 21 23 22 23 25 27 30 29 32 34 39 46 42 43 41 41 40 44 36 32 35 40 40 41 44 36 33 34 34 35 35 34 39 40 40 36 32 33 28
18 19 20 16 20 23 24 22 24 26 30 32 33 36 30 41 49 49 48 49 47 45 44 39 32 32 38 41 40 49 30 36 38 38 38 41 42 42 42 40 41 29 32 26
22 24 24 23 21 25 25 26 27 28 31 33 36 37 42 46 48 46 50 52 53 50 43 35 35 32 32 39 41 44 39 39 38 41 43 45 44 48 50 47 29 30 27 21
26 26 27 27 26 27 29 30 29 28 30 32 37 41 42 46 50 47 54 56 53 46 38 35 35 32 34 33 36 39 44 47 49 45 44 49 53 53 43 27 21 17 18 16
29 28 30 30 29 29 29 33 34 30 33 36 37 38 42 47 49 54 58 54 46 39 35 28 29 28 31 33 31 32 37 45 45 48 51 55 45 39 30 20 16 14 14 14
29 30 30 31 32 32 32 39 30 31 35 41 40 44 46 48 49 52 51 44 39 33 30 28 25 24 25 29 30 28 28 24 18 21 30 34 35 18 17 17 15 16 16 16
33 30 33 34 35 32 35 40 34 35 38 40 43 46 47 49 50 48 41 37 32 28 24 22 26 25 27 21 23 23 22 17 18 19 18 12 15 14 15 15 15 15 16 18
38 39 36 37 38 36 38 36 38 37 38 41 42 45 45 48 48 44 38 29 27 19 19 18 24 26 27 27 22 21 19 16 17 17 15 15 15 13 14 13 12 14 15 17
41 39 39 38 38 42 41 37 39 40 39 40 42 43 45 48 45 39 34 26 23 20 16 28 16 17 17 14 13 14 15 14 17 18 17 15 13 12 12 12 13 13 15 17
43 46 45 42 39 39 43 42 41 42 41 41 41 43 46 44 41 35 32 22 23 20 26 17 10 7 8 14 14 13 12 14 17 19 18 16 14 13 14 15 16 17 19 19
45 49 47 48 44 43 42 42 42 42 40 41 42 41 45 40 36 32 27 19 19 20 13 9 8 7 10 14 13 14 16 17 17 16 17 17 17 18 18 19 20 21 21 21
45 47 48 50 48 45 44 42 43 43 41 41 40 40 40 36 32 27 22 18 19 16 14 13 10 9 11 15 16 18 18 18 19 19 18 19 20 22 22 22 22 21 20 20
Wind_Direction
123 180 258 36 149 100 118 88 28 352 304 262 305 297 277 242 294 334 341 355 323 282 279 279 280 282 277 266 258 257 254 246 236 236 232 227 225 225 230 235 239 241 244 244
159 7 87 227 130 100 106 211 62 45 36 37 4 282 263 290 287 329 333 317 325 333 303 307 297 291 288 278 271 259 253 250 246 239 240 241 240 239 241 243 245 249 252 251
62 131 171 74 98 53 73 333 318 34 73 350 330 279 326 310 291 298 301 315 318 316 317 309 308 305 297 292 273 265 260 253 253 251 247 247 250 249 249 251 251 252 256 262
171 164 201 31 56 39 338 333 345 359 22 335 345 330 186 251 312 284 291 295 303 308 305 304 304 303 304 303 296 283 268 261 254 253 254 253 252 253 253 255 258 269 267 268
73 240 314 340 311 321 312 340 354 345 0 300 32 20 324 40 280 296 288 285 287 292 298 301 298 292 299 296 293 285 273 265 264 262 258 256 254 255 255 258 265 262 263 269
237 302 317 307 1 42 66 56 27 30 32 311 308 7 224 273 282 289 284 284 286 287 289 291 294 294 291 294 292 285 276 264 260 257 257 260 263 257 256 257 258 260 262 261
340 332 359 50 63 352 20 25 328 72 315 276 297 353 223 269 305 307 292 279 274 277 277 280 279 287 300 289 292 283 279 269 269 264 254 251 255 257 258 258 256 261 261 261
313 231 303 357 47 198 12 31 96 310 279 270 334 319 281 300 331 327 316 310 296 275 270 271 274 275 288 293 289 285 272 269 268 270 268 260 265 279 243 247 255 261 265 266
157 245 293 305 332 348 323 5 266 304 318 313 285 289 318 294 316 314 330 313 307 297 279 271 268 271 276 281 288 280 275 290 290 275 265 252 282 280 234 242 241 259 257 262
230 220 276 298 319 313 328 319 332 297 300 300 282 311 302 280 306 313 318 313 308 305 287 274 267 266 268 276 278 284 277 283 296 298 285 259 278 278 266 252 252 254 250 273
219 247 263 291 322 313 311 327 316 306 303 302 309 303 282 303 310 309 310 311 312 299 293 276 264 261 263 264 274 281 282 280 281 296 300 284 300 287 278 298 326 297 299 319
253 252 253 252 270 282 294 300 303 283 289 289 289 308 298 311 317 313 311 310 311 301 294 284 268 260 258 259 262 272 278 282 291 298 308 310 294 309 315 323 314 318 313 327
262 274 283 294 306 308 298 311 309 304 301 299 293 301 283 284 302 306 309 309 305 304 292 283 273 258 250 252 258 256 270 272 279 283 295 304 300 301 314 319 324 317 290 306
270 272 278 277 241 243 281 298 302 302 299 302 289 290 294 297 299 306 307 305 301 300 299 285 274 262 248 249 258 264 257 263 265 273 281 286 290 297 303 308 312 312 303 315
279 279 277 278 279 278 281 289 296 298 297 295 303 297 301 301 308 311 309 305 300 297 296 292 279 266 254 251 255 256 247 262 271 272 273 278 282 288 289 296 295 295 301 295
281 287 286 283 286 289 293 301 299 305 300 301 303 304 301 298 307 312 308 308 302 296 298 298 280 269 257 254 252 261 259 262 269 268 269 274 279 283 284 285 291 294 290 280
291 290 290 294 289 292 301 296 305 304 304 305 302 302 301 303 305 309 304 304 300 298 298 293 278 273 263 257 256 260 268 261 264 269 270 272 274 278 279 283 297 296 274 262
288 286 285 289 290 292 299 301 300 303 299 302 301 305 307 305 310 311 305 306 307 302 298 288 282 277 271 263 259 259 261 264 265 269 270 271 276 281 292 276 289 303 262 246
282 282 282 284 286 293 296 293 305 306 304 300 306 305 307 311 314 312 312 314 311 308 299 287 291 287 272 268 268 265 265 264 262 260 263 264 272 275 277 261 275 278 268 252
279 280 279 283 285 289 291 291 302 295 301 306 310 313 314 315 314 310 313 314 312 309 299 294 292 288 280 269 271 271 274 274 282 274 276 278 273 252 245 261 265 263 254 252
286 279 281 283 284 284 285 288 301 302 300 308 308 311 314 314 314 313 313 315 314 308 303 300 298 286 270 276 264 268 267 264 274 288 295 279 271 251 255 256 253 250 257 268
282 284 285 284 284 285 284 297 296 297 299 300 303 307 310 311 314 314 314 315 311 310 304 297 300 285 277 278 265 261 259 260 272 279 282 268 261 254 247 243 249 258 265 269
278 275 273 276 279 285 289 289 291 294 295 297 301 305 309 313 315 314 314 308 302 304 307 310 298 273 268 265 251 251 263 274 275 272 273 271 258 245 240 245 256 268 275 277
275 276 273 274 273 272 279 286 288 290 293 297 300 305 308 313 314 310 307 299 303 295 318 289 261 241 268 264 263 256 260 267 267 265 265 264 257 249 248 257 268 274 279 282
273 274 278 277 273 271 274 277 282 285 290 294 297 302 305 310 310 306 300 293 309 300 301 246 249 252 265 276 264 257 264 267 265 261 261 259 254 251 252 259 267 272 274 274
274 273 274 275 275 276 277 278 280 284 288 290 294 298 303 306 305 300 290 288 303 289 240 221 243 266 276 275 264 266 268 268 264 265 267 262 258 256 260 264 270 275 278 277